Theta_e
336 347 346 344 350 351 351 350 350 351 352 354 353 353 348 347 346 350 352 356 355 353 354 354 353 353 351 352 351 350 349 347 348
357 355 350 349 342 349 351 351 351 351 352 352 353 354 355 353 351 349 349 351 352 354 358 355 355 351 348 351 352 352 352 349 342
357 358 356 352 347 343 352 352 352 351 352 353 354 355 355 356 355 352 352 351 351 355 356 356 356 357 354 353 353 351 352 351 348
358 358 359 357 354 352 342 349 354 353 353 354 355 356 357 357 359 361 358 356 355 356 358 359 355 357 356 355 354 354 350 350 349
356 356 358 359 357 347 343 340 344 341 340 356 357 356 355 360 360 361 360 359 357 356 357 353 354 354 352 351 351 352 351 350 351
352 353 354 355 357 361 360 361 357 356 358 357 358 356 359 361 361 361 360 360 360 356 353 351 350 344 340 345 348 352 353 352 352
351 351 353 356 358 360 360 361 360 361 361 361 360 361 360 360 360 361 360 360 360 360 356 354 350 346 339 335 343 346 350 348 349
349 352 353 355 358 360 361 357 357 356 356 358 358 361 359 358 358 358 359 359 357 355 351 348 349 345 346 338 343 341 342 349 348
345 347 349 353 352 353 353 354 352 361 362 360 358 360 360 361 361 359 359 358 351 342 347 346 352 349 350 347 345 346 349 346 344
345 346 347 347 350 351 354 354 351 359 359 356 358 358 358 361 361 364 360 355 356 353 353 353 354 353 351 348 344 339 339 341 338
344 346 349 348 350 355 355 355 353 352 354 357 358 357 359 361 353 360 365 360 357 354 354 342 336 334 335 329 329 331 329 330 333
344 346 347 348 350 350 352 353 354 352 352 353 352 356 354 355 356 356 358 358 354 350 343 340 339 327 323 324 326 325 325 326 332
345 345 346 345 347 350 347 349 350 352 352 352 351 353 352 352 353 356 357 356 353 348 343 340 338 330 328 327 328 327 326 326 324
342 340 341 341 340 341 340 339 340 343 349 349 349 349 348 349 351 352 352 352 351 350 349 347 336 329 325 324 328 329 329 328 329
339 338 336 336 336 337 337 336 335 333 332 331 330 329 328 327 329 331 334 334 341 347 350 345 339 335 327 326 328 330 331 334 333
336 335 334 334 334 334 334 333 334 333 333 332 329 327 324 322 322 323 323 322 323 333 344 348 346 344 340 332 328 330 333 336 337
334 334 334 333 333 333 332 333 333 333 333 333 333 333 333 333 333 328 323 322 322 323 324 326 345 344 344 340 338 333 332 336 337
334 333 333 333 333 333 333 333 333 332 331 332 332 331 331 331 331 330 330 333 335 335 334 333 332 331 346 347 347 345 344 344 340
333 332 331 330 332 332 332 333 333 331 329 328 327 326 326 326 326 326 327 329 332 334 335 336 336 336 335 335 337 345 344 342 340
330 330 332 334 334 333 330 326 325 325 327 328 328 328 328 327 327 327 329 329 326 327 331 334 336 334 333 333 333 333 334 337 340
Wind_Speed
25 22 30 36 33 42 44 44 42 37 33 29 24 21 25 28 28 26 25 26 24 19 15 18 14 17 20 24 19 15 14 17 17
18 26 14 59 39 46 46 43 42 37 33 27 26 24 21 24 28 31 31 27 27 26 20 18 21 20 16 17 22 18 15 17 17
15 22 28 8 47 30 33 36 37 37 30 25 22 23 23 21 23 28 29 30 31 26 23 23 26 26 20 14 21 15 18 19 18
13 14 21 30 21 30 14 22 26 35 27 23 22 19 18 17 17 18 19 22 25 27 26 22 21 20 18 18 20 20 20 22 20
9 10 11 18 25 31 30 19 18 13 22 26 20 19 15 15 16 19 19 18 18 18 28 23 28 19 18 19 20 20 20 22 22
9 8 6 6 7 16 14 14 16 17 30 14 10 16 14 15 17 19 21 19 16 15 15 16 18 16 12 19 17 15 18 19 21
10 5 4 7 9 7 2 2 7 10 12 11 9 13 15 16 20 18 20 21 21 20 17 16 13 16 9 17 18 20 20 18 17
18 5 10 11 6 3 2 6 5 5 2 7 9 6 6 8 9 13 22 22 18 20 25 20 16 16 18 8 16 18 22 21 22
13 13 15 5 1 7 8 5 4 4 7 7 12 10 12 9 11 16 19 21 13 11 16 19 20 22 16 16 16 17 20 23 23
13 9 4 4 5 7 5 5 3 8 5 4 3 6 6 9 14 17 14 15 15 17 20 21 18 18 16 14 15 15 19 22 25
17 14 11 7 7 12 12 5 6 4 6 6 5 7 8 10 11 15 16 17 19 19 15 12 10 10 8 9 8 4 4 9 18
19 15 11 8 4 4 8 8 11 9 6 7 6 5 9 10 8 5 9 13 13 17 18 16 14 13 10 5 7 10 11 10 7
16 15 12 7 1 4 2 6 9 9 9 7 9 11 11 11 11 11 11 14 14 15 15 14 14 18 17 15 16 18 14 12 12
10 7 10 9 4 1 1 4 7 7 11 11 13 14 14 15 15 15 17 18 18 21 22 19 18 20 21 20 19 18 17 15 15
10 8 6 4 5 5 7 8 12 13 13 15 17 19 21 22 22 23 23 23 24 22 22 26 29 28 27 26 24 22 19 20 19
11 9 7 5 3 6 8 12 15 19 21 23 25 26 27 27 28 28 29 29 29 29 28 29 33 33 34 34 32 29 25 23 24
11 8 4 5 7 10 13 16 20 22 23 24 26 26 26 27 28 29 29 29 29 31 31 33 32 34 36 38 38 36 34 29 28
1 3 6 10 14 18 21 23 24 24 23 25 26 27 29 30 31 30 28 26 25 25 26 26 28 35 34 33 34 33 30 30 32
12 15 19 21 20 21 21 20 22 26 29 30 31 31 30 30 30 31 31 33 34 31 30 28 28 28 30 35 38 39 34 24 22
12 15 12 11 13 17 21 26 30 30 28 29 30 32 33 31 30 30 30 30 32 37 37 34 29 29 32 33 35 35 38 42 43
Wind_Direction
215 150 219 215 198 208 197 203 206 213 216 218 225 229 231 228 229 229 218 224 234 243 236 235 255 251 259 251 267 264 268 264 262
17 16 47 182 195 207 202 200 205 210 216 221 228 234 239 243 239 235 235 234 237 239 237 238 244 260 270 240 248 264 277 280 271
22 15 22 117 207 202 188 204 202 207 218 223 230 236 241 254 255 246 243 242 245 239 233 238 245 250 262 234 241 257 271 277 281
33 15 28 44 107 143 200 305 209 201 207 218 228 235 244 258 252 263 265 257 250 239 237 238 240 241 246 241 252 261 266 268 272
77 46 28 68 77 139 188 245 218 110 220 219 225 224 246 260 258 260 262 270 267 260 244 251 252 239 242 257 258 259 267 270 270
101 85 48 5 56 107 113 116 151 145 190 198 222 232 237 238 250 262 257 258 262 259 254 255 278 296 297 283 275 265 264 265 268
131 143 70 133 92 89 80 90 120 124 158 171 218 211 222 243 249 250 244 253 253 253 251 264 264 264 302 278 283 305 283 274 275
77 105 98 101 108 86 341 275 255 259 273 217 207 203 243 280 257 245 248 256 261 247 253 242 260 270 278 229 246 254 267 269 261
90 79 70 105 300 322 319 289 278 148 197 223 218 235 239 241 248 261 252 260 235 243 238 260 272 279 273 278 276 274 272 275 269
128 109 87 7 344 249 235 266 217 223 245 267 258 282 273 256 266 261 254 238 238 242 255 266 270 272 271 276 287 285 280 277 270
144 133 122 89 75 130 152 201 255 233 199 222 265 276 275 282 298 250 244 246 249 245 249 256 250 253 255 276 265 293 352 345 281
139 140 143 90 113 184 198 145 159 182 216 248 262 269 278 299 312 295 266 261 271 250 257 252 256 231 222 222 203 209 265 281 352
129 138 151 125 105 260 302 209 181 184 216 243 237 237 246 253 256 260 272 284 284 280 270 260 244 239 249 256 249 259 274 283 289
142 157 169 162 92 189 259 279 264 248 252 251 257 254 258 260 258 266 272 272 275 279 279 276 260 257 256 252 253 260 267 279 282
152 159 146 161 217 240 258 279 292 294 292 291 287 282 282 282 282 277 274 271 264 260 262 268 272 269 261 256 255 256 258 269 261
167 155 153 183 235 251 271 276 278 280 284 285 286 288 285 283 282 282 281 280 277 269 264 266 267 267 269 266 261 260 262 264 258
151 163 191 238 260 276 277 276 276 279 281 285 288 288 289 291 292 290 287 286 284 283 278 269 268 270 269 271 274 274 274 274 258
168 260 275 280 285 285 286 288 288 292 295 292 288 287 285 284 285 290 293 292 291 290 287 285 282 267 265 268 270 273 271 268 263
299 297 296 291 286 289 293 293 291 293 297 297 296 297 296 296 294 290 284 280 278 275 276 275 269 274 275 269 265 262 259 254 251
277 283 276 278 283 283 288 295 298 298 295 292 289 288 291 293 293 294 292 289 292 286 277 270 274 270 267 270 273 271 267 264 264